Location: Amsterdam
(30.7274°N, 84.4357°W)
Time: 13:44:55
(UTC+00:00)

ACS3 Solar Sail - Visible Passes

Search period start: 20 July 2024 00:00
Search period end: 30 July 2024 00:00
Orbit: 993 x 1023 km, 97.4° (Epoch: 19 July)

Date Brightness Start Highest point End Pass type
(mag) Time Alt. Az. Time Alt. Az. Time Alt. Az.
20 Jul 5.2 02:23:27 33° SE 02:25:46 48° ENE 02:31:43 10° N visible
20 Jul 6.6 04:08:48 19° WSW 04:10:02 20° W 04:14:27 10° NW visible
21 Jul 6.7 01:14:56 10° E 01:16:50 11° ENE 01:18:45 10° NE visible
21 Jul 4.8 02:58:18 50° S 03:00:04 84° WSW 03:06:20 10° NNW visible
22 Jul 6.0 01:47:46 17° ESE 01:50:46 25° ENE 01:55:37 10° NNE visible
22 Jul 5.7 03:33:06 36° SW 03:34:32 41° W 03:40:22 10° NNW visible
23 Jul 5.1 02:22:36 34° SE 02:24:53 50° ENE 02:30:52 10° N visible
23 Jul 6.7 04:07:56 18° WSW 04:09:10 19° W 04:13:29 10° NW visible
24 Jul 6.7 01:13:44 10° E 01:15:56 12° ENE 01:18:08 10° NE visible
24 Jul 4.8 02:57:26 50° S 02:59:12 81° W 03:05:28 10° NNW visible
25 Jul 6.0 01:46:55 18° ESE 01:49:52 26° ENE 01:54:49 10° NNE visible
25 Jul 5.8 03:32:15 35° SW 03:33:40 39° W 03:39:27 10° NNW visible
26 Jul 5.1 02:21:45 35° SE 02:24:00 52° ENE 02:30:02 10° N visible
26 Jul 6.7 04:07:05 18° WSW 04:08:19 19° W 04:12:30 10° NW visible
27 Jul 6.6 01:12:34 10° E 01:15:02 13° ENE 01:17:30 10° NE visible
27 Jul 4.8 02:56:35 50° S 02:58:19 79° WSW 03:04:35 10° NNW visible
28 Jul 5.9 01:46:04 19° ESE 01:48:59 26° ENE 01:54:02 10° NNE visible
28 Jul 5.8 03:31:25 34° SW 03:32:48 38° W 03:38:33 10° NNW visible
29 Jul 5.0 02:20:54 36° SE 02:23:07 54° ENE 02:29:11 10° N visible
29 Jul 6.8 04:06:15 17° WSW 04:07:28 18° W 04:11:31 10° NW visible
